Temp
15 15 14 14 14 13 12 12 12 12 12 12 12 12 12 12 12 13 13 13 13 13 13 13 13 13 13 13 13 14 14 14 14 14 14 14 13 13 13 13 13 13 13 13 13 13 13 13 13 13 13 13 13 13 13 13 13 13 13 13 13 13 13 13 13 13 13 13 12
15 15 15 14 14 13 12 12 11 11 12 12 11 11 11 11 12 12 12 13 13 13 13 12 12 12 12 13 13 14 14 14 14 14 14 14 14 14 13 13 13 13 13 13 13 12 13 13 13 13 13 13 13 13 13 13 13 13 13 13 13 13 13 13 13 13 13 13 13
15 15 14 14 13 13 12 11 11 11 12 11 11 11 11 11 11 11 12 12 12 12 12 12 12 13 13 14 14 14 14 14 14 14 14 14 14 14 14 13 13 13 13 12 12 12 13 13 13 13 13 13 13 13 13 13 13 13 13 13 13 13 13 13 13 13 13 13 13
14 14 14 14 13 12 11 11 11 11 11 11 11 11 11 12 12 12 12 12 12 12 12 12 13 13 14 14 14 14 13 13 13 14 14 14 14 14 14 13 13 13 13 12 12 13 13 13 13 13 13 13 13 13 13 13 13 13 13 13 13 13 13 13 13 14 14 14 14
14 14 14 14 13 12 11 10 10 11 11 11 11 11 12 12 13 12 12 12 12 12 12 12 13 14 15 14 14 13 13 13 13 13 13 14 14 13 13 13 13 13 13 13 13 13 13 13 13 13 12 12 12 13 13 13 13 13 13 13 13 13 14 14 14 14 14 14 14
14 14 14 14 13 12 11 11 10 10 11 12 12 12 13 13 13 13 13 13 12 12 13 13 14 15 15 14 13 13 13 13 13 13 13 14 14 14 13 13 13 13 13 13 13 13 13 13 12 12 12 12 13 13 13 13 13 13 13 14 14 14 14 14 14 14 14 14 14
14 14 14 14 13 13 12 11 10 11 11 12 13 13 13 12 12 13 13 13 13 13 14 14 15 15 14 13 12 13 13 13 13 13 13 13 13 13 13 13 13 13 13 13 13 13 13 12 12 12 12 12 13 13 13 13 13 14 14 14 14 14 14 14 14 14 14 14 13
14 14 14 14 13 13 12 11 11 11 11 11 12 12 12 12 12 12 12 13 13 14 14 15 15 14 13 12 12 12 13 13 13 13 13 13 13 13 13 13 13 13 13 13 13 13 13 12 12 12 12 12 13 13 13 13 14 14 14 14 14 14 14 14 14 13 13 13 13
14 14 14 13 13 12 12 11 11 10 10 11 11 12 12 12 12 12 13 13 13 14 14 14 15 14 14 13 12 13 13 13 13 13 13 13 13 13 13 13 13 12 12 12 12 12 12 12 12 12 12 13 13 13 13 14 14 14 14 14 14 14 14 14 13 13 13 13 13
14 14 14 13 13 12 12 12 11 11 11 11 12 12 12 12 12 12 13 13 13 13 13 14 14 13 13 13 13 12 12 12 13 13 12 12 12 12 12 12 12 12 12 12 12 11 11 11 12 12 12 13 13 13 13 14 14 14 14 14 14 14 13 13 13 13 13 13 13
14 14 13 13 13 13 12 12 12 12 12 12 12 12 11 11 11 12 12 12 12 13 13 13 12 12 12 13 12 12 11 11 11 11 12 12 12 12 12 12 12 12 11 11 10 10 10 11 12 12 12 13 13 13 13 14 14 14 14 13 13 13 13 13 13 13 12 12 12
15 14 14 13 13 13 13 13 13 12 12 12 11 11 11 10 11 11 11 12 11 12 12 11 11 11 11 12 12 12 11 11 11 12 12 13 13 12 12 12 12 12 11 11 10 10 10 11 12 12 12 13 13 13 13 13 13 13 13 13 13 13 13 12 12 12 12 12 12
15 15 15 14 14 13 13 13 13 13 12 11 10 10 10 10 10 10 10 11 11 11 11 10 11 11 11 12 12 12 12 12 12 12 12 12 12 12 12 12 12 12 11 11 11 11 11 12 12 12 12 12 13 13 13 13 13 13 13 13 13 12 12 12 12 12 12 12 12
15 15 15 15 15 14 14 14 14 13 12 11 11 11 10 10 10 10 10 10 11 11 11 11 11 11 12 12 12 12 12 12 12 12 12 12 11 11 11 11 12 12 12 12 11 11 11 12 12 12 12 12 13 13 13 13 13 12 12 12 12 12 12 12 12 12 12 12 11
15 15 15 15 15 15 15 14 14 13 13 12 12 12 12 12 12 11 11 11 11 11 12 12 12 12 12 12 12 12 11 11 11 11 11 11 11 11 11 11 11 11 11 11 11 11 11 12 12 12 12 12 12 12 12 12 12 12 12 12 12 12 12 12 11 11 11 11 11
15 15 15 15 15 15 14 14 13 13 13 13 13 12 12 12 12 12 11 11 11 11 11 11 12 11 11 11 11 11 11 11 11 11 11 11 11 11 11 11 11 11 11 11 11 11 11 12 12 12 12 12 12 12 12 12 12 12 12 12 12 11 11 11 11 11 11 11 11
15 15 15 14 14 14 13 13 13 13 13 12 12 12 12 11 11 11 11 11 11 11 11 11 11 11 11 11 11 11 11 11 11 11 11 11 11 11 11 11 11 11 11 11 11 11 11 12 12 12 12 12 12 12 12 12 12 12 11 11 11 11 11 11 11 11 11 11 11
14 14 14 14 13 13 13 13 12 12 12 12 12 11 11 11 11 11 11 10 10 10 10 10 10 10 10 11 11 11 11 11 11 11 11 11 11 11 11 11 11 11 11 11 11 11 11 11 12 12 12 12 11 11 11 11 11 11 11 11 11 11 11 10 10 10 10 10 10
14 14 13 13 13 12 12 12 12 12 11 11 11 11 11 11 11 10 10 10 10 10 10 10 10 10 10 11 11 11 11 11 11 11 11 11 10 10 11 11 11 11 11 11 11 11 11 11 11 11 11 11 11 11 11 11 11 11 11 11 10 10 10 10 10 10 10 10 10
13 13 13 12 12 12 12 11 11 11 11 11 11 11 11 11 10 10 10 10 10 10 10 10 10 10 10 10 11 11 11 11 10 10 10 10 11 11 11 11 11 11 11 11 11 11 11 11 11 11 11 11 11 11 11 11 10 10 10 10 10 10 10 10 9 9 9 9 9
12 12 12 12 11 11 11 11 11 11 11 11 11 11 10 10 10 10 10 10 10 10 10 10 10 10 10 10 10 10 10 10 10 10 10 10 11 11 11 11 11 11 11 11 11 11 11 11 11 11 11 11 11 10 10 10 10 10 10 10 10 9 9 9 9 9 9 9 9
11 11 11 11 11 11 11 11 11 10 10 10 10 10 10 10 10 10 10 10 10 10 10 10 10 10 10 10 10 10 10 10 10 10 10 11 11 11 11 11 11 11 11 11 11 11 11 11 11 11 11 10 10 10 10 10 10 10 10 9 9 9 9 9 9 9 8 8 8
10 10 10 10 10 10 10 10 10 10 10 10 10 10 10 10 10 10 10 10 10 10 10 10 10 10 10 10 10 10 10 10 10 10 10 11 11 11 11 11 11 11 11 11 11 11 10 10 10 10 10 10 10 10 10 10 10 10 9 9 9 9 9 9 8 8 8 8 8
10 10 10 10 10 10 10 10 10 10 10 9 9 10 10 10 10 10 10 10 10 10 10 10 10 10 10 10 10 10 10 10 10 10 10 10 10 10 10 10 10 10 10 10 10 10 10 10 10 10 10 10 10 10 10 10 10 9 9 9 9 8 8 8 8 8 8 8 8
9 9 9 9 9 9 9 9 9 9 9 9 9 9 9 9 9 9 10 10 10 10 10 10 10 10 10 10 10 10 10 10 10 10 10 10 10 10 10 10 10 10 10 10 10 10 10 10 10 10 10 10 10 10 10 10 10 9 9 9 8 8 8 8 8 8 7 7 7
8 9 9 9 9 9 9 9 9 9 9 9 9 9 9 9 9 9 9 9 9 9 9 9 9 10 10 10 10 10 10 10 10 10 10 10 10 10 10 10 10 10 10 10 10 10 10 10 10 10 10 10 10 10 10 10 10 9 9 9 8 8 8 7 7 7 7 7 7
8 8 8 8 8 8 8 8 8 8 9 9 9 9 9 9 9 9 9 9 9 9 9 9 9 9 9 9 10 10 10 10 10 10 10 10 10 10 10 10 10 10 10 10 10 10 10 10 10 10 10 10 10 10 10 10 10 9 9 8 8 8 7 7 7 7 7 7 6
8 8 8 8 8 8 8 8 8 8 8 8 9 9 9 9 9 9 9 9 9 9 9 9 9 9 9 9 9 9 9 9 9 9 9 10 10 10 10 10 10 10 10 10 10 10 10 10 10 10 10 10 10 10 10 10 10 10 9 8 8 7 7 7 6 6 6 6 6
7 7 7 7 7 8 8 8 8 8 8 8 8 8 8 8 9 9 9 9 9 9 9 9 9 9 9 9 9 9 9 9 9 9 9 9 9 9 9 9 9 9 9 10 10 10 10 10 10 10 10 10 10 10 10 10 10 9 9 8 8 7 7 6 6 6 5 6 6
7 7 7 7 7 7 7 8 8 8 8 8 8 8 8 8 8 8 8 9 9 9 9 9 9 9 9 9 9 9 9 9 9 9 9 9 9 9 9 9 9 9 9 9 9 9 10 10 10 10 10 10 10 10 10 10 9 9 8 8 7 7 6 6 5 5 5 5 5
7 7 7 7 7 7 7 7 7 8 8 8 8 8 8 8 8 8 8 8 8 8 8 8 9 9 9 9 9 9 9 9 9 9 9 9 9 9 9 9 9 9 9 9 9 9 9 9 9 9 9 9 10 10 9 9 8 8 7 7 6 5 5 4 4 4 4 4 4
7 7 7 7 7 7 7 7 7 7 7 7 8 8 8 8 8 8 8 8 8 8 8 8 8 8 8 9 9 9 9 9 9 9 9 9 9 9 9 9 8 8 9 9 9 9 9 9 9 9 9 9 9 9 9 8 7 6 6 5 4 4 3 3 3 3 3 3 3
7 7 7 7 7 7 7 7 7 7 7 7 7 7 7 7 8 8 8 8 8 8 8 8 8 8 8 8 9 9 8 8 8 8 8 8 8 8 8 8 8 8 8 8 9 9 9 9 9 9 9 9 9 8 7 6 6 5 4 4 3 3 2 2 2 2 2 3 3
7 7 7 7 7 7 7 7 7 7 7 7 7 7 7 7 7 7 8 8 8 8 8 8 8 8 8 8 8 8 8 8 8 8 8 8 8 8 8 8 8 8 8 8 8 8 8 8 8 8 8 8 8 7 6 5 4 4 3 2 2 2 2 2 2 2 2 2 2
7 7 7 7 7 7 7 7 7 7 7 7 7 7 7 7 7 7 7 7 7 8 8 8 8 8 8 8 8 8 8 8 8 8 8 8 8 8 8 8 8 8 8 8 8 8 8 8 8 8 8 7 7 6 5 4 3 3 2 2 1 1 1 1 1 1 1 1 1
7 7 7 7 7 7 7 7 7 7 7 7 7 7 7 7 7 7 7 7 7 7 7 7 8 8 8 8 8 7 7 7 7 7 8 8 7 7 7 7 7 7 7 7 8 8 7 7 7 7 7 7 6 5 4 3 2 2 2 1 1 1 1 1 1 1 1 1 1
7 7 7 7 7 7 7 7 7 6 6 7 7 7 7 7 7 7 7 7 7 7 7 7 7 7 7 7 7 7 7 7 7 7 7 7 7 7 7 7 7 7 7 7 7 7 7 7 7 7 6 6 5 4 3 2 2 1 1 1 1 1 1 1 0 0 0 0 1
7 6 6 6 7 7 7 6 6 6 6 6 6 6 6 6 6 6 6 6 7 7 7 7 7 7 7 7 7 7 7 7 7 7 7 7 7 7 7 7 7 7 7 7 7 7 6 6 6 6 6 5 4 3 2 2 1 1 1 1 1 1 0 0 0 0 0 1 1
7 6 6 6 6 6 6 6 6 6 6 6 6 6 6 6 6 6 6 6 6 6 6 6 6 6 6 6 6 6 6 7 7 7 7 7 7 7 7 6 6 6 6 6 6 6 6 6 5 5 5 4 3 2 2 1 1 1 1 1 1 1 1 0 0 0 0 1 1
7 6 6 6 6 6 6 6 6 6 6 6 6 6 6 6 6 6 6 6 6 6 6 6 6 6 6 6 6 6 6 6 6 6 6 6 6 6 6 6 6 6 6 6 6 5 5 5 5 5 4 3 2 2 1 1 1 1 1 1 1 1 1 1 1 0 0 0 0
6 6 6 6 6 6 6 6 6 6 6 6 6 5 5 5 5 5 5 5 5 6 6 6 6 6 6 6 6 6 6 6 6 6 6 6 6 6 6 6 6 5 5 5 5 4 4 4 4 4 4 3 2 1 1 1 1 1 1 1 1 1 1 1 1 0 0 0 0
Height
1502 1502 1501 1501 1502 1502 1502 1503 1504 1504 1504 1505 1506 1506 1507 1507 1508 1509 1509 1509 1510 1511 1512 1513 1514 1515 1516 1517 1519 1520 1521 1522 1522 1522 1522 1523 1523 1524 1524 1525 1526 1527 1528 1528 1528 1528 1529 1531 1532 1532 1533 1533 1533 1533 1533 1534 1534 1534 1534 1534 1534 1534 1534 1533 1533 1533 1533 1533 1533
1500 1500 1500 1500 1500 1501 1502 1503 1503 1503 1503 1504 1505 1506 1507 1507 1508 1508 1509 1509 1509 1510 1511 1512 1513 1514 1515 1516 1518 1519 1520 1520 1520 1520 1521 1521 1522 1522 1523 1524 1525 1525 1525 1526 1525 1526 1528 1529 1530 1531 1532 1532 1531 1531 1531 1532 1532 1532 1532 1532 1532 1532 1532 1531 1531 1531 1531 1531 1531
1499 1499 1499 1499 1499 1499 1500 1501 1501 1501 1501 1503 1504 1505 1506 1507 1508 1508 1508 1509 1509 1509 1510 1511 1512 1513 1515 1517 1518 1518 1518 1518 1518 1519 1519 1520 1520 1521 1522 1522 1523 1523 1523 1522 1523 1524 1526 1528 1529 1529 1530 1530 1531 1531 1530 1530 1531 1531 1531 1530 1530 1530 1530 1530 1530 1530 1530 1529 1529
1498 1498 1498 1498 1498 1498 1499 1500 1499 1499 1499 1502 1504 1505 1505 1506 1507 1508 1509 1509 1509 1509 1509 1510 1511 1513 1515 1516 1517 1517 1516 1516 1516 1516 1517 1518 1519 1519 1520 1521 1522 1522 1521 1522 1522 1523 1525 1526 1526 1527 1528 1529 1529 1529 1529 1529 1529 1529 1529 1529 1529 1529 1529 1529 1529 1528 1528 1528 1528
1496 1497 1497 1497 1497 1497 1497 1498 1497 1497 1498 1500 1502 1503 1504 1505 1506 1507 1508 1508 1509 1510 1510 1511 1513 1514 1514 1514 1515 1515 1515 1515 1515 1515 1516 1517 1517 1518 1519 1519 1521 1521 1521 1522 1522 1523 1524 1524 1525 1526 1526 1526 1527 1527 1527 1528 1528 1528 1528 1528 1527 1527 1527 1527 1527 1526 1526 1526 1526
1494 1495 1496 1496 1496 1496 1496 1496 1496 1496 1496 1498 1500 1502 1503 1504 1505 1505 1506 1507 1509 1510 1511 1512 1513 1513 1512 1512 1513 1514 1514 1514 1515 1515 1516 1516 1516 1517 1518 1519 1519 1519 1520 1520 1521 1522 1523 1524 1524 1525 1525 1526 1526 1526 1526 1526 1526 1526 1526 1525 1525 1525 1525 1525 1524 1524 1524 1524 1524
1493 1494 1495 1495 1494 1494 1495 1495 1495 1495 1495 1497 1499 1500 1501 1503 1504 1504 1504 1505 1507 1508 1509 1510 1510 1510 1510 1510 1511 1512 1513 1513 1514 1515 1515 1515 1516 1517 1517 1517 1518 1518 1518 1519 1520 1520 1521 1522 1523 1524 1524 1524 1524 1524 1524 1524 1524 1524 1524 1523 1523 1523 1523 1523 1523 1522 1522 1522 1522
1492 1493 1493 1493 1493 1493 1493 1493 1494 1495 1496 1497 1497 1498 1499 1501 1503 1503 1503 1504 1504 1506 1507 1508 1508 1508 1508 1509 1510 1511 1511 1512 1512 1513 1514 1514 1515 1516 1516 1516 1517 1517 1518 1519 1519 1519 1519 1519 1520 1520 1521 1522 1522 1522 1522 1522 1522 1522 1521 1521 1521 1521 1521 1521 1520 1520 1520 1520 1520
1490 1491 1491 1491 1492 1492 1492 1492 1494 1495 1495 1495 1495 1496 1498 1500 1502 1503 1503 1503 1503 1504 1505 1506 1507 1507 1508 1508 1509 1509 1509 1509 1510 1511 1512 1513 1513 1514 1515 1515 1516 1517 1517 1518 1518 1517 1517 1517 1517 1518 1519 1519 1519 1520 1520 1520 1519 1519 1519 1519 1519 1519 1519 1519 1519 1519 1518 1518 1518
1488 1489 1489 1490 1490 1491 1492 1492 1492 1493 1493 1493 1494 1495 1497 1498 1500 1501 1502 1502 1502 1503 1503 1504 1505 1506 1507 1507 1508 1508 1508 1507 1508 1509 1510 1511 1511 1512 1513 1514 1515 1515 1516 1517 1517 1516 1515 1515 1516 1516 1517 1517 1518 1518 1518 1518 1517 1517 1517 1517 1517 1517 1517 1517 1517 1517 1516 1516 1516
1487 1487 1488 1488 1489 1490 1491 1491 1491 1491 1491 1492 1493 1494 1495 1496 1498 1499 1501 1502 1502 1502 1503 1503 1504 1505 1505 1506 1506 1505 1505 1505 1506 1508 1509 1510 1510 1511 1512 1512 1513 1514 1514 1515 1515 1515 1514 1514 1515 1515 1515 1516 1516 1516 1516 1515 1515 1515 1515 1515 1515 1515 1515 1515 1515 1515 1515 1514 1514
1486 1486 1487 1488 1488 1489 1490 1490 1491 1491 1491 1491 1492 1493 1494 1496 1497 1498 1499 1500 1501 1501 1502 1502 1503 1503 1504 1504 1504 1504 1504 1505 1506 1508 1509 1509 1510 1510 1510 1510 1511 1512 1512 1513 1514 1514 1514 1514 1513 1513 1514 1514 1514 1514 1514 1513 1513 1513 1513 1513 1514 1514 1514 1513 1513 1513 1513 1513 1512
1485 1485 1486 1487 1487 1488 1489 1489 1490 1490 1490 1490 1491 1492 1493 1494 1496 1497 1497 1498 1499 1499 1500 1500 1501 1502 1502 1503 1503 1504 1504 1505 1506 1508 1509 1509 1509 1509 1509 1509 1510 1511 1511 1512 1512 1512 1512 1512 1512 1512 1512 1512 1512 1512 1512 1512 1512 1512 1512 1512 1512 1512 1512 1512 1511 1511 1511 1511 1510
1484 1484 1485 1485 1486 1486 1487 1488 1489 1489 1489 1489 1489 1489 1491 1493 1494 1495 1495 1496 1497 1498 1498 1499 1499 1500 1501 1502 1502 1503 1503 1504 1505 1506 1507 1508 1508 1507 1508 1508 1509 1510 1510 1510 1510 1510 1510 1510 1510 1510 1510 1510 1510 1510 1510 1510 1510 1510 1510 1510 1510 1510 1510 1509 1509 1509 1509 1509 1509
1482 1483 1484 1484 1485 1485 1486 1487 1487 1488 1488 1488 1488 1489 1490 1491 1492 1493 1493 1494 1495 1496 1497 1498 1499 1499 1500 1501 1501 1502 1502 1503 1504 1505 1506 1506 1506 1506 1506 1507 1507 1508 1508 1509 1509 1509 1509 1509 1509 1509 1508 1508 1508 1508 1508 1508 1508 1508 1508 1508 1508 1508 1508 1507 1507 1507 1507 1507 1506
1480 1481 1482 1483 1484 1484 1484 1485 1486 1486 1487 1487 1487 1488 1489 1489 1491 1491 1492 1493 1494 1495 1496 1497 1497 1498 1499 1499 1500 1500 1501 1502 1503 1504 1504 1504 1504 1504 1505 1505 1505 1506 1507 1507 1507 1507 1507 1507 1507 1507 1507 1507 1507 1507 1507 1506 1506 1506 1506 1506 1506 1505 1505 1505 1505 1505 1504 1504 1504
1479 1480 1481 1481 1482 1482 1483 1484 1484 1485 1485 1485 1486 1487 1488 1489 1490 1490 1491 1492 1493 1494 1495 1495 1496 1497 1498 1499 1499 1499 1500 1500 1501 1502 1502 1503 1503 1503 1503 1504 1504 1505 1505 1506 1506 1505 1505 1505 1505 1505 1505 1505 1505 1505 1505 1505 1504 1504 1504 1504 1504 1503 1503 1503 1503 1503 1503 1503 1503
1478 1479 1479 1480 1480 1481 1482 1483 1483 1484 1484 1484 1485 1486 1487 1488 1489 1489 1490 1491 1491 1492 1493 1494 1495 1496 1496 1497 1498 1498 1499 1499 1499 1500 1500 1501 1501 1502 1502 1503 1503 1504 1504 1504 1504 1504 1504 1504 1503 1503 1503 1503 1503 1503 1503 1503 1503 1502 1502 1502 1502 1501 1501 1501 1501 1501 1501 1501 1501
1477 1477 1478 1479 1479 1480 1481 1482 1482 1483 1484 1484 1485 1486 1487 1488 1488 1489 1489 1490 1491 1491 1492 1493 1494 1494 1495 1496 1496 1497 1497 1498 1498 1498 1499 1499 1500 1500 1501 1501 1501 1502 1502 1502 1502 1502 1502 1502 1502 1502 1502 1502 1501 1501 1501 1501 1501 1500 1500 1500 1500 1499 1499 1499 1499 1499 1499 1499 1499
1475 1476 1477 1478 1479 1479 1480 1481 1482 1483 1484 1484 1485 1486 1486 1487 1487 1488 1489 1489 1490 1490 1491 1492 1492 1493 1494 1494 1494 1495 1495 1496 1496 1497 1497 1498 1498 1499 1499 1499 1499 1500 1500 1500 1500 1500 1500 1500 1500 1500 1500 1500 1499 1499 1499 1499 1499 1499 1498 1498 1498 1498 1498 1498 1498 1497 1497 1497 1498
1474 1474 1476 1477 1478 1479 1479 1480 1481 1482 1483 1484 1484 1485 1485 1486 1486 1487 1487 1488 1489 1489 1490 1490 1491 1492 1492 1493 1493 1494 1494 1494 1495 1495 1496 1496 1496 1497 1497 1497 1498 1498 1498 1498 1498 1498 1498 1498 1498 1498 1498 1498 1497 1497 1497 1497 1497 1497 1496 1496 1496 1496 1496 1496 1496 1496 1496 1496 1496
1472 1473 1474 1475 1477 1478 1479 1479 1480 1481 1482 1483 1483 1483 1484 1484 1484 1485 1485 1486 1487 1488 1488 1489 1489 1490 1490 1491 1491 1492 1492 1493 1493 1494 1494 1495 1495 1495 1495 1496 1496 1496 1496 1496 1496 1496 1496 1496 1496 1496 1495 1495 1495 1495 1495 1495 1495 1494 1494 1494 1494 1494 1494 1494 1494 1494 1494 1494 1494
1471 1472 1473 1474 1475 1476 1477 1478 1479 1480 1480 1481 1481 1482 1482 1482 1483 1483 1484 1484 1485 1486 1487 1487 1488 1488 1489 1489 1489 1490 1491 1491 1492 1492 1493 1493 1493 1494 1494 1494 1494 1494 1494 1494 1494 1494 1494 1494 1494 1494 1494 1494 1493 1493 1493 1493 1493 1493 1492 1492 1492 1492 1492 1492 1492 1492 1492 1492 1493
1470 1471 1472 1473 1474 1475 1476 1477 1477 1478 1479 1479 1479 1480 1480 1480 1481 1482 1482 1483 1484 1484 1485 1485 1486 1486 1487 1487 1488 1489 1489 1490 1490 1491 1491 1491 1491 1492 1492 1492 1492 1492 1492 1492 1492 1492 1492 1492 1492 1492 1492 1492 1491 1491 1491 1491 1490 1490 1490 1490 1490 1490 1489 1489 1489 1490 1490 1490 1490
1470 1471 1471 1472 1473 1474 1474 1475 1476 1476 1477 1478 1478 1478 1479 1479 1479 1480 1481 1482 1482 1483 1484 1484 1484 1485 1485 1486 1486 1487 1488 1488 1489 1489 1489 1489 1489 1489 1490 1490 1490 1490 1490 1490 1491 1491 1490 1490 1490 1490 1490 1490 1489 1489 1489 1489 1489 1488 1488 1488 1488 1488 1487 1487 1487 1488 1488 1488 1488
1469 1470 1470 1471 1472 1472 1473 1474 1474 1475 1475 1476 1476 1477 1477 1478 1478 1479 1480 1480 1481 1481 1482 1482 1483 1484 1484 1484 1485 1486 1486 1486 1487 1487 1487 1487 1488 1488 1488 1488 1488 1489 1489 1489 1489 1489 1489 1489 1488 1488 1488 1488 1488 1488 1487 1487 1486 1486 1486 1485 1485 1485 1485 1485 1485 1485 1485 1486 1486
1468 1469 1469 1470 1470 1471 1472 1472 1473 1473 1474 1474 1475 1475 1476 1476 1477 1478 1478 1479 1479 1480 1481 1481 1482 1482 1483 1483 1484 1484 1484 1485 1485 1485 1485 1486 1486 1486 1486 1486 1487 1487 1487 1487 1487 1487 1487 1486 1486 1486 1486 1486 1486 1485 1485 1485 1484 1484 1484 1483 1483 1483 1483 1483 1483 1483 1483 1483 1484
1467 1467 1468 1468 1469 1469 1470 1471 1471 1472 1473 1473 1474 1474 1475 1475 1476 1477 1477 1478 1478 1479 1479 1480 1480 1481 1482 1482 1482 1483 1483 1483 1483 1484 1484 1484 1484 1484 1485 1485 1485 1485 1485 1485 1485 1485 1485 1485 1484 1484 1484 1484 1483 1483 1483 1483 1482 1481 1481 1481 1480 1480 1480 1480 1480 1480 1481 1481 1481
1466 1466 1467 1467 1468 1468 1469 1469 1470 1471 1471 1472 1473 1473 1474 1474 1475 1475 1476 1476 1477 1478 1478 1479 1479 1480 1480 1481 1481 1481 1481 1482 1482 1482 1482 1483 1483 1483 1484 1484 1484 1484 1484 1483 1483 1483 1483 1483 1483 1482 1482 1482 1481 1481 1480 1480 1479 1479 1479 1478 1478 1478 1478 1478 1478 1478 1479 1479 1479
1464 1465 1465 1466 1466 1467 1467 1468 1469 1469 1470 1471 1471 1472 1473 1473 1474 1474 1475 1475 1476 1477 1477 1478 1478 1479 1479 1479 1479 1480 1480 1480 1480 1481 1481 1481 1482 1482 1482 1482 1482 1482 1482 1482 1481 1481 1481 1481 1481 1481 1480 1480 1479 1479 1478 1478 1477 1477 1476 1476 1476 1475 1475 1475 1476 1476 1476 1477 1477
1463 1464 1464 1464 1465 1466 1466 1467 1468 1468 1469 1469 1470 1471 1471 1472 1473 1473 1474 1474 1475 1475 1476 1476 1477 1477 1478 1478 1478 1479 1479 1479 1479 1479 1480 1480 1480 1480 1480 1480 1480 1480 1480 1480 1480 1479 1479 1479 1479 1479 1479 1478 1477 1476 1476 1475 1475 1474 1474 1474 1474 1473 1473 1474 1474 1474 1474 1475 1475
1462 1462 1463 1463 1464 1464 1465 1466 1466 1467 1468 1469 1469 1470 1470 1471 1472 1472 1473 1473 1474 1474 1475 1475 1476 1476 1476 1476 1477 1477 1477 1478 1478 1478 1478 1479 1479 1479 1479 1479 1479 1479 1478 1478 1478 1478 1478 1478 1477 1477 1476 1475 1475 1474 1474 1474 1473 1473 1472 1472 1472 1472 1472 1472 1472 1473 1473 1473 1474
1461 1461 1462 1462 1463 1463 1464 1464 1465 1466 1467 1467 1468 1469 1469 1470 1470 1471 1471 1472 1473 1473 1474 1474 1474 1474 1475 1475 1475 1476 1476 1476 1476 1477 1477 1477 1477 1477 1478 1478 1477 1477 1477 1477 1476 1476 1476 1476 1475 1475 1474 1474 1473 1473 1472 1472 1471 1471 1470 1470 1470 1470 1470 1471 1471 1471 1472 1472 1473
1459 1460 1460 1461 1461 1462 1463 1464 1464 1465 1465 1466 1467 1467 1468 1469 1469 1470 1470 1471 1471 1472 1472 1473 1473 1473 1474 1474 1474 1474 1474 1475 1475 1475 1475 1475 1476 1476 1476 1476 1476 1475 1475 1475 1475 1474 1474 1474 1473 1473 1472 1472 1471 1471 1470 1470 1470 1469 1469 1469 1469 1469 1469 1470 1470 1470 1471 1471 1472
1458 1459 1459 1459 1460 1461 1462 1462 1463 1464 1464 1465 1465 1466 1467 1467 1468 1469 1469 1469 1470 1470 1471 1471 1471 1472 1472 1472 1473 1473 1473 1473 1474 1474 1474 1474 1474 1474 1474 1474 1474 1474 1474 1473 1473 1473 1472 1472 1471 1471 1470 1470 1470 1469 1469 1469 1469 1469 1469 1468 1468 1469 1469 1469 1469 1469 1470 1470 1471
1457 1458 1458 1459 1459 1459 1460 1461 1462 1462 1463 1464 1464 1465 1465 1466 1467 1467 1468 1468 1469 1469 1469 1470 1470 1470 1471 1471 1471 1472 1472 1472 1472 1472 1472 1472 1473 1473 1473 1473 1472 1472 1472 1471 1471 1471 1470 1470 1469 1469 1469 1469 1468 1468 1468 1468 1468 1468 1468 1468 1468 1468 1468 1468 1469 1469 1469 1470 1470
1456 1457 1457 1457 1458 1459 1459 1460 1460 1461 1462 1462 1463 1464 1464 1465 1465 1466 1466 1467 1467 1468 1468 1469 1469 1469 1469 1470 1470 1470 1470 1470 1471 1471 1471 1471 1471 1471 1471 1471 1471 1470 1470 1469 1469 1469 1469 1468 1468 1468 1467 1467 1467 1467 1467 1467 1467 1467 1467 1467 1467 1467 1468 1468 1468 1469 1469 1469 1470
1455 1456 1456 1456 1457 1457 1458 1459 1459 1460 1460 1461 1462 1463 1463 1464 1464 1464 1465 1465 1466 1466 1467 1467 1467 1468 1468 1468 1468 1469 1469 1469 1469 1469 1469 1469 1469 1469 1469 1469 1469 1469 1468 1468 1468 1467 1467 1467 1466 1466 1466 1466 1466 1466 1466 1466 1466 1466 1466 1466 1466 1467 1467 1467 1468 1468 1469 1469 1469
1454 1455 1455 1455 1456 1456 1457 1457 1458 1459 1459 1460 1461 1461 1462 1462 1463 1463 1464 1464 1464 1465 1465 1466 1466 1466 1466 1466 1467 1467 1467 1467 1467 1467 1467 1468 1467 1467 1468 1468 1467 1467 1467 1466 1466 1465 1465 1465 1464 1464 1465 1465 1465 1465 1465 1465 1465 1465 1465 1465 1466 1466 1466 1467 1467 1468 1468 1469 1469
1453 1454 1454 1454 1454 1455 1455 1456 1457 1458 1458 1459 1459 1460 1460 1461 1461 1462 1462 1463 1463 1463 1464 1464 1464 1464 1464 1465 1465 1465 1465 1465 1465 1465 1465 1466 1466 1466 1466 1466 1466 1465 1465 1464 1464 1464 1463 1463 1463 1463 1464 1464 1464 1464 1464 1464 1464 1464 1464 1465 1465 1465 1466 1466 1467 1467 1468 1468 1469
1452 1452 1453 1453 1454 1454 1454 1455 1455 1456 1457 1457 1458 1459 1459 1459 1460 1460 1460 1461 1461 1462 1462 1462 1462 1463 1463 1463 1464 1464 1464 1464 1464 1464 1464 1464 1464 1464 1464 1464 1464 1464 1463 1463 1463 1462 1462 1462 1462 1462 1463 1463 1463 1463 1463 1463 1463 1464 1464 1464 1464 1465 1465 1466 1466 1467 1467 1468 1468
Wind_Speed
32 32 31 29 26 21 17 15 14 13 13 14 12 10 10 12 14 17 19 20 20 19 18 18 18 18 18 18 19 20 21 22 22 23 24 25 25 25 25 25 25 26 27 28 27 24 21 20 20 21 22 23 23 23 23 23 23 24 25 26 27 28 28 29 29 29 28 28 29
30 31 30 28 24 19 15 12 9 8 8 10 7 4 3 5 8 11 13 15 16 16 15 15 15 15 15 16 18 20 22 22 23 23 24 24 23 23 23 24 26 28 30 28 23 18 17 19 21 23 24 24 24 24 24 24 25 25 26 27 28 29 29 30 30 30 31 31 31
29 29 28 26 22 18 14 10 7 7 7 5 3 3 3 4 5 5 6 8 9 10 10 11 12 12 13 16 19 21 23 23 24 24 23 22 21 21 22 24 27 28 25 20 16 15 17 21 23 25 26 26 26 26 26 26 26 27 28 28 29 30 31 32 32 32 32 32 31
28 28 27 26 22 17 13 10 8 8 7 5 3 1 4 8 10 10 9 8 7 6 6 6 7 10 14 18 22 24 25 25 25 24 24 23 21 21 23 25 27 26 22 17 16 17 20 23 26 27 27 27 26 25 25 26 27 28 29 30 31 31 32 32 31 30 30 29 28
28 28 28 26 22 17 13 10 9 8 6 4 4 8 12 15 18 19 18 16 14 11 9 8 11 14 19 24 27 28 28 26 25 24 25 25 24 24 25 26 27 27 25 22 20 21 23 26 27 27 25 23 23 24 25 26 28 29 30 31 31 31 30 29 28 27 26 25 25
29 29 29 28 24 18 14 13 13 10 6 3 6 10 15 19 21 22 22 20 18 17 16 17 19 22 25 28 29 30 29 27 25 25 26 26 26 26 26 27 28 28 26 23 22 23 25 27 26 23 21 21 22 24 26 28 30 31 31 30 29 28 27 26 25 25 24 24 24
30 30 29 28 26 23 19 15 15 12 8 6 7 12 18 22 22 19 17 17 18 19 21 22 25 27 29 29 30 30 30 28 26 26 27 28 28 27 27 28 28 27 25 22 23 25 26 26 24 21 20 22 24 26 28 30 30 30 29 28 27 26 25 25 24 24 24 24 24
31 31 29 27 25 24 21 18 15 14 14 14 16 19 21 21 20 18 18 20 22 24 24 24 26 28 29 30 30 30 30 30 28 28 29 29 29 28 28 27 27 25 23 22 24 27 28 26 23 21 22 24 26 28 29 30 29 28 27 26 25 25 24 24 24 24 24 24 24
33 31 28 25 23 23 22 20 18 18 19 20 20 21 20 19 19 20 21 24 26 28 29 28 28 28 30 30 31 31 30 30 30 30 30 29 28 27 26 25 23 22 23 25 26 26 26 23 22 22 23 25 27 28 28 28 27 26 25 25 25 25 24 24 24 24 24 24 24
32 31 28 24 22 22 23 23 22 21 20 19 19 19 19 20 21 23 24 26 28 30 32 32 32 32 32 32 32 31 29 27 28 28 26 24 22 21 22 23 23 24 25 26 25 24 22 21 21 22 24 25 26 27 27 26 25 25 25 25 25 25 25 25 24 24 24 24 24
25 26 25 24 22 22 23 24 24 23 21 20 20 20 22 24 25 26 27 27 29 30 32 33 33 33 33 33 31 26 21 20 20 20 21 21 21 23 24 25 25 25 24 23 22 21 21 21 22 23 24 25 25 25 25 24 24 24 24 24 24 24 24 24 24 24 24 24 24
20 21 22 22 22 21 22 23 24 25 24 24 24 24 25 28 28 28 28 28 28 29 30 30 31 30 30 30 28 24 20 18 18 20 24 26 27 27 26 26 25 24 23 21 21 21 22 22 22 22 23 24 24 24 24 24 24 24 24 24 24 24 24 24 23 23 23 23 23
20 21 21 22 22 22 22 24 25 26 25 24 24 24 25 27 28 28 27 27 26 26 27 26 27 28 28 28 28 27 25 23 24 25 27 27 27 26 25 25 24 24 22 21 21 21 22 22 22 22 23 23 23 23 23 23 23 23 23 23 23 23 23 23 23 23 23 23 23
22 23 23 24 24 24 25 26 28 27 24 20 19 19 21 23 24 24 24 23 23 23 24 24 24 25 26 27 28 27 27 26 26 26 26 25 24 22 22 22 22 22 21 21 21 21 21 21 22 22 23 23 23 23 23 23 23 23 23 23 23 23 23 23 23 23 23 23 22
24 24 25 26 27 28 28 28 27 26 24 21 18 18 19 22 23 22 21 21 21 21 22 22 23 23 24 25 25 26 25 25 24 24 23 22 21 20 20 19 19 19 19 20 20 20 21 21 22 22 22 22 22 22 23 23 23 23 23 23 23 23 23 23 23 23 22 22 22
26 27 28 29 31 30 29 26 25 23 22 21 20 19 20 22 23 23 22 21 21 21 21 22 22 22 23 23 24 25 24 23 22 21 20 20 19 18 17 17 17 18 18 19 19 20 20 21 21 21 22 22 22 22 23 23 23 23 23 23 23 23 23 23 23 23 22 22 22
28 29 30 30 30 28 26 23 22 20 19 19 18 19 20 21 22 23 22 22 21 21 21 22 22 23 23 24 24 24 23 22 19 18 17 16 16 16 16 16 17 17 18 19 19 19 20 20 20 21 21 21 22 22 23 23 23 23 23 24 24 23 23 23 23 23 23 23 23
29 29 29 28 27 25 23 21 19 18 18 17 18 19 20 20 21 21 21 21 21 21 21 22 22 23 23 22 22 21 20 18 16 15 15 14 15 15 16 16 17 17 18 18 18 19 19 19 20 20 21 21 22 22 23 23 23 24 24 24 24 24 24 24 24 24 23 23 23
29 28 27 25 23 22 20 19 18 17 17 17 18 19 19 19 20 20 20 20 20 21 21 21 21 21 20 19 18 17 16 15 15 14 14 14 14 15 15 16 17 17 17 17 18 18 18 19 19 20 20 21 22 22 23 23 24 24 24 24 25 25 25 25 24 24 24 24 23
27 25 24 22 20 19 18 18 17 17 17 17 18 18 18 19 19 19 19 20 20 20 20 20 19 18 17 16 15 14 14 14 14 14 14 14 14 15 15 15 16 16 16 16 17 17 18 19 19 20 21 21 22 22 23 24 24 25 25 25 25 25 25 25 25 25 25 24 24
22 21 19 18 17 17 17 17 17 17 17 17 17 17 18 18 18 19 19 19 19 19 18 17 16 15 14 14 13 13 13 13 13 14 14 14 14 14 15 15 15 15 16 16 17 17 18 19 19 20 21 22 22 23 23 24 25 25 26 26 26 26 26 26 26 26 25 25 24
18 17 16 16 15 16 16 16 16 16 17 17 17 17 18 18 18 18 18 18 17 17 16 15 14 14 13 13 13 13 13 13 13 13 13 14 14 14 14 14 14 15 15 16 16 17 18 19 19 20 21 22 23 24 24 25 25 26 26 27 27 27 27 27 27 26 26 25 25
15 15 15 15 15 15 16 16 16 16 17 17 17 17 18 18 18 18 17 17 16 15 14 14 13 13 13 13 13 13 13 13 13 13 13 13 13 13 13 13 14 14 14 15 16 16 17 18 19 20 21 22 23 24 25 25 26 26 27 27 28 28 28 28 28 27 27 26 26
14 14 14 15 15 16 16 16 17 17 17 18 18 18 17 17 17 16 16 15 15 14 14 13 13 13 13 13 13 13 13 13 13 13 13 13 12 12 12 13 13 13 14 15 15 16 17 18 19 20 21 22 23 24 25 25 26 27 27 28 28 28 29 29 29 28 27 27 26
14 14 15 15 16 16 17 17 17 18 18 18 18 17 17 16 16 16 15 14 14 14 14 14 13 13 13 13 13 13 13 13 13 13 12 12 12 12 12 12 13 13 14 15 15 16 17 18 19 20 21 22 23 24 25 25 26 27 27 28 28 29 29 29 29 29 28 27 27
14 15 15 16 16 17 17 17 18 18 18 17 17 16 16 16 15 15 15 14 14 14 14 14 14 13 13 13 13 13 13 13 12 12 12 11 11 12 12 13 13 14 15 15 16 17 18 19 20 20 21 22 23 24 25 26 27 27 28 28 28 29 29 29 29 29 28 28 27
15 15 16 16 17 17 17 17 17 17 17 17 16 16 16 15 15 15 15 15 15 15 15 14 14 14 14 14 14 13 13 12 11 11 11 11 12 12 13 13 14 15 16 17 18 18 19 20 21 22 23 24 24 25 26 27 28 28 29 29 29 29 28 28 28 28 28 28 27
15 15 15 16 16 17 17 17 17 16 16 16 16 15 15 15 15 15 15 15 15 15 15 15 15 14 14 14 13 12 12 11 11 11 12 12 13 14 14 15 16 17 17 18 19 20 21 22 22 23 25 25 26 27 27 28 29 30 30 29 29 28 28 28 28 27 27 27 26
15 15 15 15 15 16 16 16 16 16 16 16 15 15 16 16 16 16 16 16 16 16 16 16 15 15 14 13 12 12 12 12 12 12 13 14 14 15 16 16 17 18 19 20 21 21 22 23 24 24 25 27 27 28 29 29 30 30 29 28 27 27 26 26 26 26 25 25 25
15 15 15 15 15 15 15 15 15 15 15 16 16 16 16 16 17 17 17 17 17 16 16 16 16 15 14 13 13 12 12 13 13 14 14 15 16 16 17 18 18 19 20 21 22 23 23 24 24 25 26 27 28 29 29 29 29 28 27 26 24 23 23 23 23 23 23 23 23
15 15 15 15 14 14 15 15 15 15 16 16 16 17 17 17 18 18 18 17 17 17 17 16 15 15 14 14 13 13 14 14 15 15 16 16 17 17 18 19 20 21 22 22 23 24 24 25 25 26 26 27 28 29 29 28 27 26 24 22 21 20 20 20 20 21 21 21 21
15 15 15 15 14 14 14 15 15 16 16 16 17 17 18 18 18 18 18 18 18 17 17 16 15 15 14 14 14 15 15 15 16 16 17 17 18 18 19 20 21 22 23 23 24 25 25 25 26 26 27 27 28 28 27 25 24 22 21 20 19 18 18 18 18 19 19 19 19
15 15 15 15 15 15 15 15 15 16 16 17 17 18 18 18 18 18 18 18 18 17 16 16 15 15 15 15 15 16 16 16 17 17 18 19 19 20 20 21 22 23 24 24 25 25 25 26 26 26 26 27 27 26 24 22 21 20 19 18 18 17 17 17 17 17 17 16 16
15 15 15 15 15 15 15 15 16 16 17 18 18 18 19 19 19 19 18 18 18 17 17 16 16 16 16 16 16 17 17 18 18 19 20 20 20 21 21 22 23 24 24 25 25 25 26 26 26 26 26 26 25 23 20 19 18 17 17 17 17 16 16 16 15 15 15 15 14
14 14 15 15 15 15 16 16 16 17 18 18 19 19 19 19 19 18 18 18 18 17 17 17 17 17 17 18 18 18 19 19 20 20 21 21 22 22 22 23 23 24 25 25 25 25 25 25 25 25 25 24 22 19 17 15 15 14 15 15 15 15 14 14 14 14 14 13 13
14 14 14 15 15 15 16 16 17 17 18 19 19 19 19 19 19 18 18 18 18 18 18 18 18 18 18 19 19 20 20 21 21 22 22 23 23 23 23 24 24 25 25 25 25 25 25 24 24 24 23 21 18 16 14 13 12 13 13 14 14 13 13 13 13 13 13 12 12
14 14 14 15 15 15 16 16 17 18 18 19 19 19 19 19 19 19 19 19 18 18 19 19 19 19 20 20 20 21 22 22 22 23 23 24 24 24 24 24 25 25 26 25 25 25 24 24 24 23 22 19 15 13 11 11 11 12 13 13 13 12 12 12 12 12 12 11 11
14 14 14 14 14 15 15 16 16 17 18 18 19 19 19 19 19 19 19 19 19 19 20 20 20 21 21 22 22 22 23 23 24 24 24 25 25 25 25 25 25 25 25 25 25 24 24 23 23 22 19 16 13 11 10 10 11 12 13 13 12 12 12 12 12 12 12 11 11
15 14 14 14 14 14 15 15 16 16 17 18 18 19 19 19 19 19 20 20 20 20 21 21 22 22 23 23 23 23 24 24 25 25 25 25 25 26 25 25 25 25 25 24 24 23 23 22 22 20 17 14 11 10 10 11 12 13 13 13 13 12 12 12 12 12 12 12 11
16 15 15 15 15 14 14 15 15 16 16 17 18 18 19 19 19 20 20 21 21 22 22 23 23 24 24 24 24 24 24 25 26 26 26 26 26 26 26 25 24 24 24 23 23 22 22 22 21 18 15 13 11 10 10 11 12 13 13 13 13 13 13 13 13 13 13 13 12
18 17 17 16 15 15 15 15 15 16 16 17 18 18 19 19 20 21 21 22 22 23 23 24 24 25 25 25 25 25 25 25 26 26 26 26 26 26 25 25 24 23 23 22 21 21 21 20 19 17 14 12 12 11 11 12 13 14 14 14 14 14 14 14 14 14 14 13 13
Wind_Direction
246 243 239 235 232 230 228 230 233 236 235 234 236 240 244 249 250 248 245 242 241 239 240 242 243 244 244 243 241 241 240 239 237 236 235 235 236 238 240 242 241 240 240 240 238 236 234 237 241 245 247 249 253 257 261 266 268 270 272 273 273 273 273 273 274 275 276 276 277
248 246 242 237 233 231 231 237 242 241 234 231 231 239 268 277 268 258 250 244 240 238 238 241 246 250 250 245 240 238 239 239 237 235 234 234 234 235 237 239 240 240 240 237 232 229 231 238 242 244 246 246 248 251 255 260 264 267 269 270 272 273 274 275 277 278 279 278 277
250 250 246 239 235 232 233 236 229 219 208 188 154 94 44 0 328 301 270 246 236 235 241 247 251 249 244 240 238 239 241 241 238 235 234 234 234 236 237 239 240 241 238 231 226 230 237 241 242 243 243 243 245 247 252 257 262 265 268 270 272 273 275 276 277 277 277 276 274
250 252 251 245 239 235 231 222 205 187 171 154 138 29 319 312 311 308 297 277 258 249 249 249 237 229 231 239 242 246 247 245 240 235 233 233 235 237 239 241 243 244 243 239 239 243 244 243 243 242 242 242 244 247 252 258 263 267 269 271 272 273 273 274 274 273 272 272 271
251 253 253 250 244 237 230 218 200 183 173 188 250 277 285 287 288 289 287 282 270 257 242 222 214 220 231 242 248 252 253 249 242 236 234 234 235 238 240 242 244 245 246 245 246 247 247 245 243 242 243 246 250 254 258 263 266 268 270 271 271 271 271 271 271 270 270 269 269
251 252 252 249 244 238 228 222 226 219 207 236 281 277 270 267 268 268 265 260 251 241 231 222 221 229 238 246 252 256 256 251 243 237 235 236 236 238 239 241 243 243 242 241 243 245 246 246 245 245 248 255 260 264 266 267 268 268 269 269 269 269 269 270 270 271 271 272 272
249 249 247 244 242 238 230 221 226 225 222 236 251 247 245 247 249 244 231 218 215 216 219 222 227 235 243 249 254 257 256 251 243 237 235 235 236 237 238 239 240 240 239 239 242 244 245 247 248 251 257 262 266 267 268 268 267 267 267 267 268 269 270 271 272 274 275 275 276
248 247 245 242 240 236 230 218 217 229 239 238 229 226 230 235 234 224 210 203 203 206 210 218 227 236 244 250 254 255 253 249 244 239 236 234 234 234 236 237 238 239 240 242 243 244 245 248 253 259 264 266 267 267 266 265 265 265 265 266 268 270 272 274 275 277 278 278 279
248 248 247 245 241 236 230 225 231 240 244 237 227 222 223 225 220 211 204 204 207 209 212 217 224 233 241 246 250 250 247 243 240 237 234 231 230 231 234 237 241 244 246 246 246 246 249 253 261 266 267 267 265 264 263 262 263 264 266 268 271 273 275 276 278 279 280 281 281
250 250 249 248 243 238 235 236 240 242 241 234 227 225 223 221 215 208 205 207 211 215 219 222 226 232 237 242 244 243 240 234 232 231 230 230 231 235 239 243 246 249 250 251 252 254 257 261 266 267 266 263 261 260 260 261 264 266 269 272 274 276 278 279 280 282 283 283 282
256 254 253 251 247 242 241 242 245 245 242 237 232 229 226 220 214 210 208 209 213 217 221 225 228 231 234 235 236 235 232 228 226 228 233 239 244 246 247 248 249 250 252 256 262 265 266 266 265 264 262 260 259 260 262 265 267 270 273 275 276 278 279 280 282 283 283 283 283
266 263 261 259 256 252 249 250 250 248 243 239 236 231 225 218 214 212 213 214 216 218 221 225 227 227 227 227 228 229 231 233 235 240 244 247 248 248 247 248 249 252 256 261 265 266 265 263 261 259 259 259 261 263 266 269 271 273 274 276 277 278 279 280 281 282 282 282 282
269 269 268 267 266 264 262 260 258 252 244 237 236 231 223 217 216 217 218 219 220 222 223 225 224 223 223 224 226 228 231 235 238 241 243 244 245 246 247 249 252 255 259 260 260 259 259 258 258 258 259 262 264 267 269 272 273 274 275 276 276 277 278 279 279 280 280 280 281
264 265 267 268 269 269 267 265 262 258 251 243 238 232 227 225 226 226 225 224 226 227 228 228 227 226 225 226 228 229 231 232 235 238 242 245 247 249 250 250 251 253 254 255 255 255 256 258 259 260 262 265 268 270 272 273 274 275 276 276 277 277 278 279 279 280 280 281 281
256 257 258 260 262 263 263 262 261 259 257 255 252 248 245 244 244 242 239 236 234 235 235 235 234 233 232 232 233 235 236 237 239 243 247 250 253 253 251 249 247 247 248 249 252 254 257 259 262 264 267 270 272 273 275 275 276 277 277 278 278 279 279 280 280 281 281 282 281
249 250 251 253 256 258 260 260 259 259 259 259 259 257 255 255 255 255 253 250 247 245 243 242 240 239 239 240 242 245 247 248 248 249 249 250 249 248 246 244 244 245 247 250 253 256 260 263 267 270 272 274 275 276 277 278 278 279 279 280 280 280 280 280 281 281 281 281 281
250 251 252 254 257 260 261 260 260 259 259 260 260 258 257 256 257 258 259 258 255 252 249 247 246 245 246 248 250 252 254 254 251 246 241 239 238 238 240 242 245 248 251 254 258 261 265 268 271 274 276 277 278 279 279 280 280 280 281 281 281 281 281 281 281 281 281 281 280
255 257 258 260 262 264 263 262 261 260 259 258 257 256 254 254 255 256 257 256 255 253 251 249 248 248 248 248 248 249 248 246 242 238 234 234 236 239 243 247 251 254 257 260 263 266 269 272 274 277 278 279 280 281 282 282 282 282 282 282 282 282 281 281 281 280 280 280 279
259 260 262 263 264 265 264 262 259 257 255 253 252 251 251 251 252 253 252 251 250 248 247 246 246 245 243 241 239 237 236 236 235 236 238 241 244 247 250 253 256 259 261 265 268 271 273 275 277 279 280 281 282 283 283 284 284 283 283 283 282 281 281 280 279 279 278 278 278
260 261 262 262 263 262 260 257 254 251 249 248 247 247 248 248 249 248 248 246 245 244 243 241 240 237 235 232 230 230 231 233 237 240 244 247 251 253 255 257 260 262 265 269 272 274 276 278 280 281 282 283 284 285 285 285 285 284 283 283 281 280 279 278 277 276 276 275 275
260 260 260 260 259 257 254 251 249 247 246 245 246 246 247 247 246 245 244 243 241 239 237 235 233 231 230 229 229 231 234 238 241 244 247 250 252 254 256 259 262 266 269 272 275 277 279 281 282 284 285 285 285 285 285 285 285 284 283 282 280 279 277 276 275 274 273 273 272
261 260 259 258 256 253 250 248 247 246 246 247 248 248 248 247 245 243 242 239 237 235 233 231 230 230 231 233 235 237 239 242 244 245 247 249 251 254 258 261 265 269 272 275 277 280 282 284 285 286 287 287 287 286 286 286 285 284 283 281 280 278 276 275 273 272 271 271 270
261 260 258 256 254 252 250 249 249 249 250 251 252 251 250 248 245 242 239 236 234 232 231 231 232 234 236 238 239 241 242 243 243 244 246 248 251 255 259 263 267 271 274 277 280 282 284 286 286 287 287 287 287 287 287 286 285 284 283 281 279 277 276 274 273 271 270 269 268
261 259 257 255 254 253 252 252 253 253 254 255 254 253 251 247 244 240 237 234 233 232 233 235 237 238 240 241 241 241 241 241 241 243 245 248 252 256 261 265 269 273 276 279 281 283 285 285 286 286 287 287 287 287 287 287 286 284 283 281 279 277 275 274 272 271 270 268 268
260 258 257 255 254 254 255 255 255 256 256 255 254 252 249 245 241 238 235 234 234 235 236 238 239 240 240 239 239 238 238 239 240 243 246 251 255 260 265 268 272 275 278 281 283 284 285 286 287 287 288 288 289 289 289 288 287 285 283 281 278 276 275 273 272 271 269 268 268
260 258 257 255 255 255 255 256 256 256 255 253 251 248 245 242 239 236 235 235 236 238 239 239 239 238 237 236 236 236 237 239 243 247 252 257 262 266 270 274 277 280 282 284 285 286 288 289 290 291 292 292 292 292 292 291 289 288 285 283 280 277 275 273 272 270 269 269 268
261 259 257 256 255 255 255 255 254 253 251 249 246 243 241 239 237 236 237 238 239 239 239 239 237 235 234 233 234 235 238 242 247 253 258 263 268 272 275 278 281 283 285 287 288 290 291 292 294 295 296 296 296 296 295 294 292 290 287 285 281 279 276 273 271 270 268 268 267
264 262 259 257 256 254 253 252 251 249 247 245 242 240 238 237 237 237 238 239 240 239 238 236 234 232 231 232 234 238 242 248 254 259 263 267 270 274 277 280 283 286 288 289 290 292 293 295 296 297 298 298 298 298 297 295 293 291 289 286 283 280 277 274 271 269 267 266 266
266 264 262 259 256 253 251 249 248 246 244 242 240 239 237 237 237 238 239 239 239 238 236 234 231 230 230 232 236 241 247 253 259 263 267 270 273 276 279 282 285 288 290 291 292 293 294 295 297 298 298 299 298 298 297 296 294 293 290 287 284 280 276 272 270 267 266 264 264
267 266 263 260 256 253 250 248 246 245 243 241 239 238 238 238 238 239 239 239 237 236 233 231 230 230 231 235 240 245 252 258 263 267 271 274 277 280 282 286 289 291 292 292 293 294 295 296 297 298 299 298 298 298 298 297 296 295 292 288 283 278 273 270 267 265 264 263 262
268 266 263 260 256 253 250 247 246 244 243 242 240 239 239 239 239 239 238 237 235 234 232 231 230 232 235 240 245 251 257 263 267 271 275 278 281 283 286 289 292 293 293 293 294 294 295 296 298 299 299 299 299 300 300 300 299 296 292 285 278 273 268 266 265 263 262 261 259
268 266 263 259 256 253 250 248 246 245 244 243 242 241 240 240 240 239 238 236 235 233 232 232 234 237 241 247 252 257 263 268 272 275 278 281 284 286 289 292 294 295 294 294 295 295 296 297 299 300 300 300 301 302 304 304 302 298 291 283 275 269 265 264 262 260 258 256 254
269 266 263 260 257 254 251 249 248 247 245 244 243 242 242 241 240 239 238 237 235 234 234 236 239 243 248 253 258 263 267 272 275 278 281 283 286 289 292 294 295 295 295 295 295 296 297 298 300 301 301 302 303 306 308 307 304 299 291 283 275 269 264 260 257 254 252 251 250
269 267 264 261 258 255 253 251 249 248 246 245 244 244 243 242 241 240 239 238 237 237 238 240 244 248 253 257 262 266 270 274 277 279 282 285 287 290 293 295 296 296 295 296 296 297 298 299 300 301 301 303 306 308 309 308 304 298 291 283 276 269 262 257 253 249 248 248 248
270 268 266 263 260 257 255 252 250 248 247 246 245 244 244 243 242 241 241 240 240 240 242 245 248 252 257 261 265 268 271 274 277 279 282 285 288 291 294 296 296 296 296 296 297 298 299 300 300 300 301 303 306 308 308 304 299 292 285 279 274 268 261 254 248 246 245 245 244
271 269 267 265 262 259 257 254 251 249 248 247 246 245 245 244 244 243 243 243 243 244 246 249 253 256 260 263 267 269 271 274 277 279 282 285 288 291 294 296 297 297 296 297 297 298 298 299 299 299 301 303 305 305 303 297 290 282 276 272 269 265 258 249 243 241 240 240 238
273 271 268 266 264 261 259 256 253 251 249 248 248 247 247 246 246 246 246 246 247 248 251 253 256 259 262 264 267 269 272 274 277 279 282 285 288 291 294 296 297 297 296 296 297 297 297 297 297 298 300 302 302 299 293 286 278 272 267 264 262 258 252 244 239 236 235 234 233
274 272 269 267 265 262 260 258 255 254 252 251 250 249 249 249 249 249 250 250 251 252 254 256 259 261 263 265 267 270 272 275 277 279 282 285 288 290 293 295 296 296 296 295 295 295 295 294 295 296 298 298 294 288 280 273 268 264 260 257 253 250 246 240 235 232 230 228 227
274 274 272 269 266 263 261 259 257 256 255 254 253 252 252 252 253 253 253 254 254 255 256 258 260 261 263 265 268 270 273 275 277 279 282 284 287 290 292 294 295 295 294 294 293 292 292 292 293 294 295 292 285 276 268 264 262 259 255 251 247 244 240 237 232 229 227 226 225
273 274 273 271 268 265 263 261 259 258 257 256 255 255 255 255 255 256 256 256 256 257 257 258 260 262 264 266 269 271 273 275 277 279 281 284 286 289 292 294 294 294 293 292 290 290 289 289 290 291 291 285 277 268 261 257 257 256 253 249 245 241 237 234 231 228 226 226 225
269 271 272 272 270 268 266 264 262 260 259 258 258 258 257 257 257 257 257 257 258 258 259 260 261 263 266 268 269 271 272 274 277 279 281 284 286 289 291 293 294 293 291 289 288 286 286 286 287 288 285 279 272 264 257 253 254 254 251 249 245 241 237 234 230 228 227 226 226